TimeEDT,TemperatureF,Dew PointF,Humidity,Sea Level PressureIn,VisibilityMPH,Wind Direction,Wind SpeedMPH,Gust SpeedMPH,PrecipitationIn,Events,Conditions,WindDirDegrees,DateUTC
12:56 AM,26.1,24.1,92,30.39,10.0,Calm,Calm,-,N/A,,Clear,0,2011-11-05 04:56:00
1:56 AM,25.2,24.1,96,30.40,10.0,Calm,Calm,-,N/A,,Clear,0,2011-11-05 05:56:00
4:56 AM,24.1,22.1,92,30.43,10.0,ENE,3.5,-,N/A,,Clear,70,2011-11-05 08:56:00
5:56 AM,23.0,21.0,92,30.45,10.0,Calm,Calm,-,N/A,,Clear,0,2011-11-05 09:56:00
6:29 AM,21.2,19.4,93,30.42,10.0,Calm,Calm,-,N/A,,Clear,0,2011-11-05 10:29:00
7:56 AM,22.1,20.1,92,30.49,10.0,ENE,3.5,-,N/A,,Clear,70,2011-11-05 11:56:00
8:56 AM,26.1,22.1,85,30.51,10.0,East,3.5,-,N/A,,Clear,80,2011-11-05 12:56:00
9:56 AM,31.1,25.2,79,30.51,10.0,Calm,Calm,-,N/A,,Clear,0,2011-11-05 13:56:00
12:56 PM,43.9,22.1,42,30.50,10.0,Variable,4.6,-,N/A,,Clear,0,2011-11-05 16:56:00
1:56 PM,47.8,21.0,35,30.47,10.0,SSW,8.1,-,N/A,,Clear,210,2011-11-05 17:56:00
2:56 PM,47.8,16.2,28,30.46,10.0,SSE,9.2,-,N/A,,Clear,160,2011-11-05 18:56:00
3:56 PM,47.8,18.1,31,30.45,10.0,South,6.9,-,N/A,,Clear,170,2011-11-05 19:56:00
4:56 PM,45.9,15.1,29,30.45,10.0,SSE,8.1,-,N/A,,Clear,150,2011-11-05 20:56:00
5:56 PM,43.0,18.1,37,30.44,10.0,SE,5.8,-,N/A,,Clear,140,2011-11-05 21:56:00
6:56 PM,34.9,21.0,57,30.44,10.0,East,4.6,-,N/A,,Clear,90,2011-11-05 22:56:00
7:56 PM,32.9,22.1,65,30.44,10.0,East,4.6,-,N/A,,Clear,100,2011-11-05 23:56:00
8:56 PM,32.0,21.0,64,30.44,10.0,East,4.6,-,N/A,,Clear,90,2011-11-06 00:56:00
9:56 PM,32.0,22.1,67,30.45,10.0,East,5.8,-,N/A,,Clear,100,2011-11-06 01:56:00
10:56 PM,31.1,21.0,66,30.45,10.0,ESE,5.8,-,N/A,,Clear,120,2011-11-06 02:56:00
11:56 PM,34.9,18.1,51,30.45,10.0,SE,6.9,-,N/A,,Clear,130,2011-11-06 03:56:00